• In India
  • List of Countries
  • For 7 days
  • Water Temperature
  • Satellite Maps
  • Weather Map
  • Weather Widgets
  • user-avatar
    Login

    Hourly Weather Knieja

    Today, 25 September, Tuesday

    Time Temperature Precipitation Wind Pressure Humidity
    00:00 +5°C° 0 mm 4 mps 754 mmHg 75%
    01:00 +5°C° 0 mm 3 mps 755 mmHg 79%
    02:00 +5°C° 0 mm 3 mps 755 mmHg 79%
    03:00 +5°C° 0 mm 3 mps 755 mmHg 79%
    04:00 +5°C° 0 mm 3 mps 756 mmHg 79%
    05:00 +5°C° 0 mm 3 mps 757 mmHg 76%
    06:00 +5°C° 0 mm 3 mps 757 mmHg 74%
    07:00 +6°C° 0 mm 4 mps 758 mmHg 72%
    08:00 +7°C° 0 mm 4 mps 759 mmHg 63%
    09:00 +9°C° 0 mm 5 mps 759 mmHg 53%
    10:00 +12°C° 0 mm 5 mps 760 mmHg 44%
    11:00 +12°C° 0 mm 5 mps 760 mmHg 42%
    12:00 +13°C° 0 mm 5 mps 760 mmHg 40%
    13:00 +13°C° 0 mm 5 mps 761 mmHg 38%
    14:00 +13°C° 0 mm 5 mps 761 mmHg 40%
    15:00 +12°C° 0 mm 4 mps 761 mmHg 42%
    16:00 +12°C° 0 mm 4 mps 761 mmHg 44%
    17:00 +11°C° 0 mm 3 mps 761 mmHg 51%
    18:00 +9°C° 0 mm 3 mps 761 mmHg 58%
    19:00 +8°C° 0 mm 2 mps 762 mmHg 65%
    20:00 +7°C° 0 mm 2 mps 762 mmHg 68%
    21:00 +7°C° 0 mm 2 mps 762 mmHg 72%
    22:00 +7°C° 0 mm 3 mps 762 mmHg 75%
    23:00 +7°C° 0 mm 3 mps 762 mmHg 75%

    Tomorrow, 26 September, Wednesday

    Time Temperature Precipitation Wind Pressure Humidity
    00:00 +5°C° 0 mm 3 mps 762 mmHg 75%
    01:00 +5°C° 0 mm 3 mps 762 mmHg 75%
    02:00 +5°C° 0 mm 3 mps 762 mmHg 75%
    03:00 +5°C° 0 mm 4 mps 761 mmHg 75%
    04:00 +5°C° 0 mm 4 mps 761 mmHg 74%
    05:00 +5°C° 0 mm 4 mps 761 mmHg 72%
    06:00 +6°C° 0 mm 5 mps 761 mmHg 70%
    07:00 +7°C° 0 mm 5 mps 761 mmHg 68%
    08:00 +7°C° 0.1 mm 6 mps 760 mmHg 68%
    09:00 +8°C° 0.1 mm 6 mps 760 mmHg 68%
    10:00 +8°C° 0.1 mm 7 mps 759 mmHg 69%
    11:00 +9°C° 0.1 mm 7 mps 759 mmHg 65%
    12:00 +10°C° 0.1 mm 7 mps 758 mmHg 62%
    13:00 +10°C° 0.1 mm 7 mps 758 mmHg 59%
    14:00 +11°C° 0 mm 7 mps 757 mmHg 57%
    15:00 +11°C° 0 mm 7 mps 756 mmHg 55%
    16:00 +11°C° 0 mm 7 mps 755 mmHg 53%
    17:00 +11°C° 0.1 mm 7 mps 755 mmHg 54%
    18:00 +12°C° 0.1 mm 7 mps 755 mmHg 55%
    19:00 +12°C° 0.1 mm 7 mps 754 mmHg 56%
    20:00 +12°C° 0 mm 7 mps 754 mmHg 58%
    21:00 +12°C° 0 mm 7 mps 754 mmHg 59%
    22:00 +12°C° 0 mm 7 mps 754 mmHg 60%
    23:00 +12°C° 0 mm 7 mps 754 mmHg 65%

    Day after tomorrow, 27 September, Thursday

    Time Temperature Precipitation Wind Pressure Humidity
    00:00 +12°C° 0 mm 7 mps 754 mmHg 69%
    01:00 +12°C° 0 mm 7 mps 754 mmHg 74%
    02:00 +12°C° 0 mm 7 mps 753 mmHg 77%
    03:00 +12°C° 0 mm 7 mps 753 mmHg 80%
    04:00 +12°C° 0 mm 7 mps 753 mmHg 84%
    05:00 +14°C° 0 mm 7 mps 753 mmHg 84%
    06:00 +14°C° 0 mm 7 mps 753 mmHg 85%
    07:00 +14°C° 0 mm 7 mps 754 mmHg 85%
    08:00 +14°C° 0 mm 7 mps 754 mmHg 85%
    09:00 +14°C° 0 mm 7 mps 754 mmHg 84%
    10:00 +15°C° 0 mm 7 mps 754 mmHg 83%
    11:00 +15°C° 0 mm 6 mps 754 mmHg 82%
    12:00 +15°C° 0 mm 6 mps 754 mmHg 81%
    13:00 +16°C° 0 mm 6 mps 754 mmHg 79%
    14:00 +16°C° 0 mm 6 mps 754 mmHg 79%
    15:00 +16°C° 0 mm 5 mps 754 mmHg 78%
    16:00 +16°C° 0 mm 5 mps 753 mmHg 77%
    17:00 +15°C° 0 mm 4 mps 753 mmHg 81%
    18:00 +14°C° 0 mm 4 mps 753 mmHg 85%
    19:00 +14°C° 0 mm 3 mps 752 mmHg 88%
    20:00 +14°C° 0 mm 4 mps 752 mmHg 87%
    21:00 +14°C° 0 mm 4 mps 751 mmHg 86%
    22:00 +14°C° 0 mm 5 mps 751 mmHg 85%
    23:00 +14°C° 0 mm 5 mps 750 mmHg 85%

    28 September, Friday

    Time Temperature Precipitation Wind Pressure Humidity
    00:00 +14°C° 0 mm 5 mps 749 mmHg 86%
    01:00 +14°C° 0 mm 5 mps 749 mmHg 86%
    02:00 +14°C° 0.1 mm 5 mps 748 mmHg 85%
    03:00 +14°C° 0.1 mm 6 mps 748 mmHg 84%
    04:00 +14°C° 0.1 mm 6 mps 747 mmHg 83%
    05:00 +14°C° 0.1 mm 6 mps 748 mmHg 82%
    06:00 +13°C° 0.1 mm 6 mps 748 mmHg 82%
    07:00 +13°C° 0.1 mm 6 mps 748 mmHg 81%
    08:00 +13°C° 0 mm 6 mps 749 mmHg 73%
    09:00 +13°C° 0 mm 6 mps 749 mmHg 66%
    10:00 +13°C° 0 mm 6 mps 749 mmHg 58%
    11:00 +13°C° 0 mm 5 mps 750 mmHg 57%
    12:00 +14°C° 0 mm 5 mps 750 mmHg 56%
    13:00 +14°C° 0 mm 5 mps 750 mmHg 54%
    14:00 +14°C° 0 mm 5 mps 750 mmHg 57%
    15:00 +13°C° 0 mm 5 mps 751 mmHg 59%
    16:00 +13°C° 0 mm 4 mps 751 mmHg 61%
    17:00 +12°C° 0 mm 4 mps 751 mmHg 66%
    18:00 +11°C° 0 mm 3 mps 751 mmHg 70%
    19:00 +10°C° 0 mm 3 mps 752 mmHg 75%
    20:00 +9°C° 0 mm 2 mps 752 mmHg 76%
    21:00 +9°C° 0 mm 2 mps 752 mmHg 78%
    22:00 +8°C° 0 mm 2 mps 753 mmHg 80%
    23:00 +8°C° 0 mm 1 mps 753 mmHg 80%

    29 September, Saturday

    Time Temperature Precipitation Wind Pressure Humidity
    00:00 +8°C° 0 mm 1 mps 753 mmHg 81%
    01:00 +8°C° 0 mm 1 mps 754 mmHg 81%
    02:00 +7°C° 0 mm 1 mps 754 mmHg 82%
    03:00 +7°C° 0 mm 1 mps 754 mmHg 82%
    04:00 +7°C° 0 mm 1 mps 755 mmHg 83%
    05:00 +7°C° 0 mm 1 mps 755 mmHg 81%
    06:00 +7°C° 0 mm 1 mps 756 mmHg 80%
    07:00 +8°C° 0 mm 1 mps 756 mmHg 79%
    08:00 +10°C° 0 mm 1 mps 757 mmHg 68%
    09:00 +11°C° 0 mm 1 mps 757 mmHg 58%
    10:00 +13°C° 0 mm 1 mps 758 mmHg 48%
    11:00 +14°C° 0 mm 1 mps 758 mmHg 44%
    12:00 +15°C° 0 mm 1 mps 758 mmHg 40%
    13:00 +14°C° 0 mm 0 mps 758 mmHg 36%
    14:00 +15°C° 0 mm 1 mps 758 mmHg 37%
    15:00 +14°C° 0 mm 1 mps 757 mmHg 37%
    16:00 +14°C° 0 mm 1 mps 757 mmHg 38%
    17:00 +13°C° 0 mm 1 mps 757 mmHg 42%
    18:00 +11°C° 0 mm 1 mps 757 mmHg 47%
    19:00 +10°C° 0 mm 1 mps 757 mmHg 52%
    20:00 +9°C° 0 mm 1 mps 757 mmHg 53%
    21:00 +9°C° 0 mm 1 mps 757 mmHg 55%
    22:00 +8°C° 0 mm 2 mps 757 mmHg 57%
    23:00 +7°C° 0 mm 2 mps 757 mmHg 58%

    30 September, Sunday

    Time Temperature Precipitation Wind Pressure Humidity
    00:00 +7°C° 0 mm 2 mps 757 mmHg 60%
    01:00 +7°C° 0 mm 2 mps 757 mmHg 62%
    02:00 +6°C° 0 mm 2 mps 757 mmHg 63%
    03:00 +6°C° 0 mm 2 mps 756 mmHg 65%
    04:00 +6°C° 0 mm 2 mps 756 mmHg 66%
    05:00 +6°C° 0 mm 2 mps 756 mmHg 65%
    06:00 +6°C° 0 mm 2 mps 756 mmHg 65%
    07:00 +7°C° 0 mm 3 mps 756 mmHg 64%
    08:00 +8°C° 0 mm 3 mps 756 mmHg 58%
    09:00 +10°C° 0 mm 3 mps 755 mmHg 51%
    10:00 +12°C° 0 mm 3 mps 755 mmHg 45%
    11:00 +13°C° 0 mm 3 mps 755 mmHg 42%
    12:00 +13°C° 0 mm 3 mps 754 mmHg 40%
    13:00 +14°C° 0 mm 3 mps 754 mmHg 37%
    14:00 +14°C° 0 mm 3 mps 753 mmHg 38%
    15:00 +14°C° 0 mm 3 mps 753 mmHg 39%
    16:00 +15°C° 0 mm 2 mps 752 mmHg 40%
    17:00 +13°C° 0 mm 2 mps 752 mmHg 44%
    18:00 +10°C° 0 mm 2 mps 752 mmHg 49%
    19:00 +9°C° 0 mm 2 mps 752 mmHg 53%
    20:00 +8°C° 0 mm 2 mps 751 mmHg 54%
    21:00 +9°C° 0 mm 1 mps 751 mmHg 54%
    22:00 +8°C° 0 mm 1 mps 751 mmHg 55%
    23:00 +8°C° 0 mm 1 mps 750 mmHg 57%
    Show more